Home > Weather > Bologna > Past weeks

Flag for Italy Weather for the Past 2 Weeks in Bologna, Italy

Now
52 °F

Sunny.


Feels Like: 51 °F
Forecast: 45 / 73 °F
Wind: 5 mph from Southwest

Location: Bologna / Borgo Panigale

Current Time: May 6, 2016 at 8:10:05 AM

Latest Report: May 6, 2016 at 7:20 AM


Visibility: 10 mi

Pressure: 30.12 "Hg

Humidity: 82%

Dew Point: 46 °F

Location of BolognaLocation

Historic Weather in Bologna — Graph

°F

Bologna Temperature Yesterday

Maximum temperature yesterday: 68 °F (at 2:50 PM)
Minimum temperature yesterday: 48 °F (at 6:20 AM)
Average temperature yesterday: 60 °F

High & Low Weather Summary for the Past Weeks

 TemperatureHumidityPressure
High73 °F (May 3, 2:20 PM)100% (Apr 24, 1:20 AM)30.30 "Hg (Apr 24, 1:20 AM)
Low39 °F (Apr 26, 3:20 AM)20% (Apr 25, 6:50 PM)29.53 "Hg (Apr 24, 2:50 AM)
Average57 °F69%29.91 "Hg
* Reported Apr 21 6:20 AM — May 6 6:20 AM, Bologna, Weather by CustomWeather, © 2016

Note: Actual official high and low records may vary slightly from our data, if they occured in-between our weather recording intervals... More about our weather records

Advertising

Bologna Weather History for the Previous 24 Hours

Scroll right to see more
 ConditionsComfort  
Time TempWeatherWind HumidityBarometerVisibility
6:20 AM
Fri, May 6
48 °FClear.3 mph87%30.12 "Hg10 mi
5:50 AM48 °FClear.5 mph87%30.12 "Hg10 mi
5:20 AM48 °FClear.5 mph87%30.12 "Hg10 mi
4:50 AM48 °FClear.6 mph87%30.12 "Hg10 mi
4:20 AM48 °FClear.3 mph87%30.12 "Hg10 mi
3:50 AM48 °FClear.3 mph87%30.12 "Hg10 mi
3:20 AM50 °FClear.5 mph88%30.12 "Hg10 mi
2:50 AM52 °FClear.7 mph82%30.12 "Hg10 mi
2:20 AM52 °FClear.7 mph82%30.12 "Hg10 mi
1:50 AM52 °FClear.7 mph82%30.15 "Hg10 mi
1:20 AM52 °FPassing clouds.5 mph82%30.15 "HgN/A
12:50 AM54 °FClear.7 mph77%30.15 "Hg10 mi
12:20 AM54 °FClear.8 mph77%30.15 "Hg10 mi
11:50 PM
Thu, May 5
55 °FClear.8 mph72%30.15 "Hg10 mi
11:20 PM55 °FClear.7 mph77%30.15 "Hg10 mi
10:50 PM55 °FClear.7 mph77%30.15 "Hg10 mi
10:20 PM57 °FClear.7 mph72%30.12 "Hg10 mi
9:50 PM57 °FClear.5 mph63%30.12 "Hg10 mi
9:20 PM57 °FSunny.2 mph63%30.12 "Hg10 mi
8:50 PM59 °FSunny.2 mph59%30.12 "Hg10 mi
8:20 PM59 °FSunny.5 mph59%30.12 "Hg10 mi
7:50 PM64 °FSunny.6 mph52%30.12 "Hg10 mi
7:20 PM64 °FPassing clouds.7 mph52%30.12 "HgN/A
6:50 PM66 °FPassing clouds.7 mph49%30.12 "HgN/A
6:20 PM66 °FPassing clouds.9 mph49%30.12 "HgN/A
5:50 PM68 °FPassing clouds.6 mph46%30.12 "HgN/A
5:20 PM68 °FPassing clouds.8 mph46%30.12 "HgN/A
4:50 PM68 °FScattered clouds.7 mph46%30.15 "HgN/A
4:20 PM66 °FScattered clouds.10 mph49%30.15 "HgN/A
3:50 PM66 °FScattered clouds.8 mph46%30.15 "HgN/A
3:20 PM68 °FScattered clouds.9 mph46%30.15 "HgN/A
2:50 PM68 °FScattered clouds.7 mph46%30.15 "HgN/A
2:20 PM66 °FScattered clouds.8 mph46%30.18 "HgN/A
1:50 PM66 °FScattered clouds.6 mph49%30.18 "HgN/A
1:20 PM64 °FScattered clouds.6 mph49%30.18 "HgN/A
12:50 PM66 °FScattered clouds.5 mph52%30.18 "HgN/A
12:20 PM64 °FScattered clouds.9 mph49%30.18 "HgN/A
11:50 AM63 °FScattered clouds.9 mph52%30.18 "HgN/A
11:20 AM63 °FScattered clouds.8 mph56%30.18 "HgN/A
10:50 AM63 °FPassing clouds.3 mph59%30.18 "HgN/A
10:20 AM61 °FPassing clouds.3 mph63%30.18 "HgN/A
9:50 AM59 °FPassing clouds.5 mph63%30.18 "HgN/A
9:20 AM59 °FPassing clouds.5 mph63%30.18 "HgN/A
8:50 AM57 °FPassing clouds.5 mph67%30.18 "HgN/A
8:20 AM57 °FPassing clouds.6 mph67%30.18 "HgN/A
Weather by CustomWeather, © 2016

See weather overviewHow to use our weather pages